Find Starlink 5269

NORAD ID: 54161 Int'l Des: 2022-141 Owner: SPXS Country: US Constellation: starlink operational
LEOCIRCULAR

Live-Position

3D-Globus wird geladen...

Über Starlink 5269

Beschreibung wird geladen...

Nächste Überflüge

Passes for default location (London). Set your location on the main map for personalized predictions.

Höhenverlauf

Loading altitude history...

Zweizeiliger Elementsatz

1 54161U 22141E 26122.19761578 -.00000265 00000-0 14097-5 0 9994
2 54161 53.2167 134.0188 0001276 80.8902 279.2235 15.08833612193797
Epoch: 2. Mai 2026 • Age: 10 hours

Aktueller Status

Höhe 540.3 km
Geschwindigkeit 7.59 km/s
Subsatellitenpunkt 3.55°N, 136.94°W
Startdatum 28. Okt. 2022
Alter 3.5 years
Typ internet

Technische Details

Klassifizierung Payload
Masse 305.00 kg
Trockenmasse 290.00 kg
Gesamtmasse 305.00 kg
Länge 0.20 m
Durchmesser 2.80 m
Spannweite 9.00 m
Form Box + pan
Hersteller SPXS
Bus-Typ Starlink
Phasenstatus In Orbit
Besitzer/Staat SPXS/US

Most Searched